Tracking 29892 objects as of 21-Nov-2024
HD Live streaming from Space Station
objects crossing your sky now

COSMOS 737

Track COSMOS 737 now!
10-day predictions
COSMOS 737 is classified as:


NORAD ID: 7826
Int'l Code: 1975-045F
Perigee: 1,477.1 km
Apogee: 1,535.7 km
Inclination: 74.0 °
Period: 116.0 minutes
Semi major axis: 7877 km
RCS: 0.701 m2 (medium)
Launch date: May 28, 1975
Source: Commonwealth of Independent States (former USSR) (CIS)
Launch site: PLESETSK MISSILE AND SPACE COMPLEX (PKMTR)
Your satellite tracking list
Your tracking list is empty




NASA's NSSDC Master Catalog

Two Line Element Set (TLE):
1  7826U 75045F   24326.09432369 -.00000007  00000-0  61599-4 0  9999
2  7826  74.0190 355.8519 0037253 184.8993 204.6861 12.41733509243454
Source of the keplerian elements: AFSPC